Location: Unspecified
(0.0000°N, 0.0000°E)
Time: 03:11:37
(UTC+00:00)

Envisat - Pass Details

Date: 01 March 2021
Orbit: 764 x 766 km, 98.1° (Epoch: 24 February)

Event Time Altitude Azimuth Distance (km) Brightness Sun altitude
Rises 04:45:42 0° 27° (NNE) 3,215 6.5 -21.5°
Reaches altitude 10° 04:48:08 10° 35° (NE) 2,292 5.8 -20.9°
Maximum altitude 04:52:48 38° 102° (ESE) 1,156 4.5 -19.7°
Drops below altitude 10° 04:57:28 10° 169° (S) 2,302 5.7 -18.6°
Sets 04:59:55 0° 177° (S) 3,230 6.4 -17.9°
